This is the latest recevied weather packets stored in our database for station/object KC5TIL-3. If no packets are shown the sender has not sent any weather packets the latest 1 day(s).
| Time | Temp. | Humidity | Pressure | Rain* | Wind** | Luminosity | Snow |
|---|---|---|---|---|---|---|---|
| 1777982603 | 22.22° C | 69% | 1001.8 hPa | 0 mm | 4.92 m/s, 158° | - | - |
| 1777982305 | 22.22° C | 69% | 1001.8 hPa | 0 mm | 4.02 m/s, 219° | - | - |
| 1777982003 | 22.22° C | 70% | 1001.8 hPa | 0 mm | 6.26 m/s, 192° | - | - |
| 1777981407 | 22.22° C | 70% | 1001.8 hPa | 0 mm | 5.81 m/s, 184° | - | - |
| 1777981106 | 22.22° C | 71% | 1001.8 hPa | 0 mm | 4.47 m/s, 205° | - | - |
| 1777980868 | 22.22° C | 71% | 1001.8 hPa | 0 mm | 4.47 m/s, 216° | - | - |
| 1777980808 | 22.22° C | 71% | 1001.8 hPa | 0 mm | 4.47 m/s, 216° | - | - |
| 1777980509 | 22.22° C | 72% | 1001.8 hPa | 0 mm | 5.36 m/s, 218° | - | - |
| 1777980208 | 22.22° C | 72% | 1001.8 hPa | 0 mm | 4.02 m/s, 172° | - | - |
| 1777979607 | 22.22° C | 73% | 1001.8 hPa | 0 mm | 5.36 m/s, 201° | - | - |
| 1777979307 | 22.22° C | 74% | 1001.8 hPa | 0 mm | 4.92 m/s, 235° | - | - |
| 1777979008 | 22.22° C | 74% | 1001.8 hPa | 0 mm | 4.92 m/s, 222° | - | - |
| 1777978710 | 22.22° C | 74% | 1001.8 hPa | 0 mm | 5.81 m/s, 144° | - | - |
| 1777978409 | 22.22° C | 75% | 1001.8 hPa | 0 mm | 5.36 m/s, 233° | - | - |
| 1777978111 | 22.22° C | 75% | 1001.8 hPa | 0 mm | 5.36 m/s, 212° | - | - |
| 1777977808 | 22.22° C | 75% | 1001.8 hPa | 0 mm | 4.47 m/s, 200° | - | - |
| 1777977208 | 22.22° C | 74% | 1001.8 hPa | 0 mm | 5.36 m/s, 222° | - | - |
| 1777976610 | 22.22° C | 75% | 1001.8 hPa | 0 mm | 3.58 m/s, 174° | - | - |
| 1777976311 | 22.22° C | 74% | 1001.8 hPa | 0 mm | 4.02 m/s, 202° | - | - |
| 1777976013 | 22.22° C | 74% | 1001.8 hPa | 0 mm | 5.36 m/s, 169° | - | - |
| 1777975712 | 22.22° C | 74% | 1001.8 hPa | 0 mm | 5.36 m/s, 214° | - | - |
| 1777975408 | 21.67° C | 74% | 1001.8 hPa | 0 mm | 4.47 m/s, 183° | - | - |
| 1777975111 | 21.67° C | 74% | 1001.8 hPa | 0 mm | 5.36 m/s, 207° | - | - |
| 1777974805 | 22.22° C | 73% | 1001.8 hPa | 0 mm | 6.26 m/s, 195° | - | - |
| 1777974506 | 21.67° C | 73% | 1001.8 hPa | 0 mm | 4.47 m/s, 233° | - | - |
* Rain latest hour (hover to see other rain measurements)
** Current wind speed in m/s (hover to see current wind gust speed)